Flag for U.S.A. Weather past 2 weeks in Des Moines, Iowa, U.S.A.

Now
68 °F

Overcast.


Feels Like: 68 °F
Forecast: 67 / 84 °F
Wind: 6 mph from West

Location: Des Moines International Airport

Current Time: Jun 30, 2015 at 5:02:44 AM

Latest Report: Jun 30, 2015 at 3:54 AM


Visibility: 9 mi

Pressure: 29.83 "Hg

Humidity: 82%

Dew point: 62 °F

Location of Des MoinesLocation

Historic Weather in Des Moines — Graph

°F

Des Moines temperature yesterday

Maximum temperature yesterday: 83 °F (at 1:54 PM)
Minimum temperature yesterday: 65 °F (at 5:54 AM)
Average temperature yesterday: 75 °F

Past Weeks' High & Low Weather Summary

 TemperatureHumidityPressure
High90 °F (Jun 20, 2:54 PM)93% (Jun 15, 4:54 AM)30.15 "Hg (Jun 15, 4:54 AM)
Low60 °F (Jun 16, 5:54 AM)37% (Jun 23, 2:54 PM)29.68 "Hg (Jun 20, 5:54 PM)
Average74 °F70%29.94 "Hg
* Reported Jun 15 3:54 AM — Jun 30 3:54 AM, Des Moines, Weather by CustomWeather, © 2015

Note: Actual official high and low records may vary slightly from our data, if they occured in-between our weather recording intervals... More about our weather records

Advertising

Des Moines weather history for previous 24 hours

 ConditionsComfort  
Time TempWeatherWind HumidityBarometerVisibility
3:54 AM
Tue, Jun 30
68 °FOvercast.6 mph82%29.83 "Hg9 mi
2:54 AM68 °FHigh level clouds.5 mph82%29.83 "Hg9 mi
1:54 AM69 °FHigh level clouds.6 mph79%29.83 "Hg10 mi
12:54 AM70 °FHigh level clouds.5 mph79%29.84 "Hg10 mi
11:54 PM
Mon, Jun 29
71 °FHigh level clouds.3 mph76%29.84 "Hg10 mi
10:54 PM73 °FHigh level clouds.3 mph74%29.85 "Hg10 mi
9:54 PM73 °FHigh level clouds.3 mph76%29.84 "Hg10 mi
8:54 PM76 °FHigh level clouds.No wind67%29.83 "Hg10 mi
7:54 PM78 °FHigh level clouds.7 mph60%29.84 "Hg10 mi
6:54 PM80 °FHigh level clouds.8 mph56%29.83 "Hg10 mi
5:54 PM81 °FOvercast.12 mph53%29.84 "Hg10 mi
4:54 PM82 °FOvercast.16 mph49%29.84 "Hg10 mi
3:54 PM82 °FOvercast.14 mph51%29.85 "Hg10 mi
2:54 PM82 °FOvercast.13 mph49%29.86 "Hg10 mi
1:54 PM83 °FOvercast.12 mph51%29.86 "Hg10 mi
12:54 PM82 °FOvercast.15 mph53%29.86 "Hg10 mi
11:54 AM82 °FOvercast.12 mph53%29.85 "Hg10 mi
10:54 AM80 °FPassing clouds.9 mph58%29.85 "Hg10 mi
9:54 AM78 °FPassing clouds.9 mph62%29.85 "Hg10 mi
8:54 AM75 °FSunny.9 mph66%29.85 "Hg10 mi
7:54 AM71 °FSunny.8 mph73%29.84 "Hg10 mi
6:54 AM67 °FPassing clouds.5 mph85%29.84 "Hg10 mi
5:54 AM65 °FPassing clouds.6 mph91%29.83 "Hg9 mi
Weather by CustomWeather, © 2015

See weather overviewHow to use our weather pages